Theta_e
308 308 309 310 310 311 311 309 309 308 310 310 304 304 307 307 297 297 306 307 304 306 308 311 312 314 315 314 316 320 321 320 321 323 323 322 321 320 320 322 323 323 322 325 327 326 327 329 328 328 326 324 328 330 329 328 330 333 338 338 335 333 334 335 334 334 335 335 336 336 336 335 335 335 335 334 333 332 332 332 332 331 330 331 330 330 331
307 307 307 308 308 308 308 308 308 309 310 309 308 308 310 308 306 309 308 308 308 309 310 312 315 319 317 318 320 321 319 321 319 319 320 319 320 320 320 321 322 324 325 326 329 332 333 331 328 327 329 328 328 329 329 329 332 334 336 337 333 331 331 331 334 332 331 334 336 335 335 335 334 334 334 334 335 334 332 330 330 330 331 331 330 331 330
305 306 307 307 308 307 306 309 309 310 310 311 311 311 311 311 309 311 309 308 307 312 316 315 320 320 320 318 319 318 318 318 318 318 318 319 318 319 322 323 323 324 326 328 330 330 331 331 332 331 330 330 332 331 330 330 330 332 331 333 335 333 329 330 331 331 331 332 333 332 333 334 335 332 331 332 333 333 332 331 330 330 330 330 331 332 330
302 306 306 307 307 307 306 306 308 310 307 297 307 301 310 299 299 309 310 306 305 312 316 317 317 318 316 315 316 318 319 320 320 319 318 319 320 320 319 320 322 322 322 325 328 331 332 332 331 329 329 330 330 329 330 330 329 332 334 333 332 332 332 332 331 331 331 332 331 331 332 331 331 331 331 331 330 331 332 332 332 333 331 331 331 331 332
296 306 306 306 306 305 301 300 307 309 312 310 312 313 314 312 311 300 298 303 311 314 314 312 313 315 315 315 316 317 318 320 321 320 320 320 320 321 323 323 323 323 324 327 330 331 330 327 326 326 327 327 328 329 329 331 331 331 332 333 332 332 332 331 330 332 331 331 331 331 331 332 332 332 331 330 330 330 330 333 334 332 331 332 332 332 332
297 303 305 306 302 292 294 310 313 313 311 312 307 307 311 314 314 308 312 313 317 316 313 312 313 314 315 317 323 326 323 320 322 323 325 323 323 324 324 324 325 326 327 328 328 329 329 329 328 330 330 329 330 331 330 329 330 331 329 330 331 330 330 330 330 331 331 331 331 331 332 333 334 333 332 331 333 333 333 333 334 333 333 333 333 332 332
297 305 304 298 290 293 311 312 313 311 311 313 313 313 314 316 316 314 314 313 314 315 315 315 316 320 323 321 322 325 326 326 325 327 325 324 324 325 326 327 327 328 329 330 333 332 329 328 332 333 330 330 331 330 331 330 330 330 330 329 330 331 331 330 331 331 330 330 330 330 331 332 333 333 333 334 334 334 335 334 333 333 334 335 335 334 333
301 297 296 288 290 306 310 314 315 315 313 312 312 309 313 316 317 317 313 313 314 316 316 317 320 320 322 322 322 323 324 326 327 326 326 326 328 327 327 329 330 331 330 330 330 330 332 332 330 328 329 333 332 331 332 330 329 328 328 327 327 329 328 329 328 329 329 329 330 330 330 331 331 331 333 334 334 335 335 334 335 335 335 334 334 334 335
295 296 296 296 306 305 307 311 312 310 308 312 306 297 305 313 318 317 315 314 315 317 317 318 319 320 319 316 318 323 323 325 326 328 325 328 329 329 330 332 330 330 331 331 332 332 332 332 330 330 332 331 329 327 326 327 325 325 325 324 323 324 323 324 324 325 327 327 329 330 330 330 330 331 332 333 334 335 334 334 334 334 333 333 334 335 334
302 297 295 295 295 291 298 308 319 318 319 318 316 310 304 314 317 317 316 314 316 317 318 318 319 319 314 309 313 323 324 324 322 322 325 326 328 328 329 329 329 330 331 332 332 330 329 329 330 330 331 328 325 324 323 323 322 322 321 321 321 321 322 323 323 324 325 325 326 326 327 327 329 331 332 334 334 335 332 332 332 332 332 332 334 333 331
298 297 293 293 291 294 306 309 316 317 316 316 319 308 301 312 315 317 316 315 316 317 318 319 318 313 307 308 315 323 323 323 325 324 324 326 329 330 329 329 328 329 329 329 328 328 327 326 327 331 330 327 324 324 324 324 322 322 322 323 323 324 325 326 327 327 328 328 328 329 328 328 330 330 331 332 333 333 332 332 331 331 329 329 329 329 330
298 297 295 293 296 295 308 314 313 313 317 317 312 295 296 312 316 318 318 317 317 318 319 319 316 311 306 310 317 325 325 327 327 325 324 324 324 324 326 328 328 328 327 327 326 326 326 326 328 329 326 324 325 324 324 324 322 322 323 324 325 326 326 326 326 326 328 328 327 328 328 329 331 330 331 331 331 331 331 330 329 328 328 327 326 326 329
299 295 297 299 299 310 314 313 315 315 318 313 297 292 298 314 316 319 321 318 319 321 320 318 312 315 322 327 328 328 326 325 325 327 327 324 323 322 323 324 321 326 326 325 324 325 325 326 326 327 325 324 323 322 323 322 322 323 324 325 325 324 324 324 324 324 323 324 325 326 326 327 329 329 330 330 330 330 329 329 328 327 328 328 328 327 327
298 300 296 297 301 310 316 314 316 316 311 296 296 312 319 322 321 323 323 321 321 323 321 318 316 325 326 329 326 324 324 324 324 322 323 322 322 324 323 322 322 324 324 324 324 324 325 325 325 325 324 322 321 322 322 322 323 324 323 323 323 322 322 322 323 323 323 323 324 323 323 324 324 322 324 325 326 326 326 326 326 326 327 326 325 325 326
302 300 297 295 291 302 314 315 313 316 300 304 314 317 319 321 319 319 322 323 324 325 321 322 323 323 325 325 325 324 323 322 321 321 320 321 321 321 322 322 322 321 321 322 321 322 323 324 324 324 323 321 321 321 321 322 323 323 323 323 322 322 322 321 322 323 323 324 324 323 323 323 322 322 321 322 322 322 322 323 323 322 322 322 322 323 325
297 296 293 294 300 312 317 314 302 311 312 317 318 317 315 319 319 320 318 320 325 325 323 323 324 325 324 324 323 322 322 323 323 323 322 321 321 320 322 322 321 321 320 320 320 321 321 322 321 322 321 319 319 319 320 322 322 322 322 322 321 321 322 322 322 322 323 323 324 323 323 323 322 322 321 321 320 320 320 319 317 317 317 317 317 318 318
300 298 302 314 314 316 317 316 317 319 321 322 324 322 320 318 318 323 320 320 325 324 323 323 324 322 323 322 321 320 320 320 320 321 321 321 320 319 319 320 320 318 318 319 319 319 320 321 321 320 320 319 318 319 320 320 319 319 319 319 319 318 318 318 319 317 319 317 318 322 321 320 320 319 320 321 319 320 320 319 318 317 317 317 315 315 315
314 314 314 315 313 317 320 319 319 318 320 322 323 322 319 320 322 322 320 322 323 323 322 321 323 323 323 321 321 321 321 320 320 319 319 318 319 318 318 319 319 318 319 318 318 317 317 319 319 319 319 318 318 318 319 319 318 317 315 315 314 313 314 315 314 314 314 313 315 317 317 316 316 316 317 316 317 317 317 316 315 315 316 316 315 315 315
305 299 315 314 315 317 318 317 320 322 322 322 323 322 323 323 323 323 325 324 324 323 322 322 323 322 321 320 320 319 319 319 319 319 319 319 318 317 317 320 318 318 318 317 316 316 316 317 318 317 318 318 318 319 318 317 316 314 313 314 312 313 313 312 313 313 313 312 313 314 315 314 314 314 312 312 314 313 313 312 313 312 312 313 312 312 313
305 304 314 316 316 317 317 317 317 317 319 321 324 324 323 323 324 323 324 324 324 323 323 325 323 321 321 319 318 318 319 319 318 317 317 317 318 318 319 319 318 317 316 315 314 313 313 315 316 316 316 316 318 318 316 315 315 314 313 313 313 313 313 312 311 312 312 308 310 311 312 313 312 313 312 313 312 312 312 313 311 310 311 311 312 314 313
310 313 313 314 315 316 316 318 317 317 318 318 323 323 322 323 324 323 322 326 324 323 324 324 322 320 319 320 320 319 319 319 317 316 316 317 317 317 317 318 316 315 314 313 313 312 312 313 315 315 315 316 317 316 315 315 315 314 313 311 313 313 312 311 310 311 312 312 311 311 312 312 313 314 312 313 312 314 315 313 311 311 311 312 312 313 313
302 305 310 313 305 306 313 315 315 316 318 317 318 321 322 322 323 323 322 322 325 325 324 323 321 320 320 320 320 318 317 317 317 317 316 316 316 316 316 316 315 315 315 314 313 313 312 312 312 313 315 315 315 314 314 314 314 314 313 313 312 312 311 311 310 311 311 310 310 310 311 311 312 313 303 300 307 311 310 304 297 296 297 309 311 311 312
302 311 312 315 314 312 314 315 316 316 318 317 315 315 318 321 321 319 321 321 320 321 322 324 322 321 320 319 319 317 316 316 316 316 316 315 315 315 316 315 313 314 314 313 313 310 311 312 312 313 313 313 313 313 313 313 314 313 313 311 311 310 310 310 308 310 309 309 309 308 308 309 311 310 312 314 295 295 300 300 297 295 292 293 292 291 303
311 313 312 314 312 310 314 314 315 314 317 316 315 315 316 318 319 320 319 318 320 319 318 318 321 320 319 318 318 317 317 317 317 317 317 318 317 315 314 314 313 313 312 311 310 310 312 313 312 313 313 312 313 312 313 313 313 313 312 311 310 309 309 310 309 309 309 309 309 308 308 308 308 308 308 308 311 299 293 298 297 295 294 293 293 293 292
308 314 313 313 312 312 314 314 315 314 316 317 314 314 316 316 316 320 319 320 320 319 317 317 318 319 318 317 317 315 314 314 314 313 312 313 312 314 314 313 312 312 311 310 311 313 314 313 312 312 312 312 312 312 312 312 312 312 312 312 312 310 310 309 309 308 307 308 308 308 308 307 308 308 307 307 306 308 309 297 296 297 297 295 294 295 296
313 312 312 313 312 312 314 313 313 315 318 317 316 316 320 320 318 318 318 319 319 319 318 318 317 318 318 315 314 315 315 315 312 311 314 313 310 311 312 312 313 313 314 314 314 314 315 314 313 312 311 312 312 313 312 312 312 312 312 312 313 311 310 310 309 308 308 309 307 307 307 307 307 307 307 308 307 308 307 307 309 304 297 296 295 297 296
310 311 310 309 308 310 311 310 310 316 316 317 316 316 318 320 316 317 318 318 319 319 318 318 317 316 316 315 314 316 315 313 313 314 312 312 311 312 313 313 313 313 313 314 313 312 310 313 313 311 311 312 313 313 313 312 312 311 312 312 311 304 297 302 310 308 308 308 307 308 307 306 305 306 308 308 308 307 306 306 306 305 307 308 301 298 306
309 309 308 305 305 306 309 312 315 315 314 314 315 315 315 316 315 315 315 316 317 317 315 315 314 313 313 314 314 312 313 313 313 313 312 312 313 314 314 314 313 313 312 310 310 311 311 312 312 313 311 312 312 312 312 312 312 312 311 311 310 310 311 308 308 308 307 308 307 307 305 305 307 307 306 306 306 306 305 306 307 306 307 307 309 301 299
307 308 310 310 311 311 312 314 314 313 313 316 315 315 314 313 314 314 314 315 315 314 313 314 315 316 315 315 314 314 314 313 311 311 312 313 312 313 313 313 314 312 309 308 310 310 310 310 311 312 312 312 312 312 312 312 312 311 310 309 309 308 309 308 306 306 307 307 307 306 301 305 306 307 307 306 305 307 306 307 306 308 307 308 308 308 304
308 310 310 310 311 311 311 310 310 311 313 313 313 312 313 313 313 313 313 313 313 312 313 314 314 314 315 315 314 313 311 311 311 311 310 310 310 310 310 310 310 310 309 307 307 308 308 309 310 311 312 313 313 313 312 312 311 310 310 310 309 308 308 308 307 306 306 305 305 298 305 306 306 306 305 306 306 305 305 304 304 304 305 306 303 306 306
308 309 309 308 308 310 309 309 310 311 312 312 312 312 312 313 313 312 313 313 313 313 314 314 314 314 314 313 313 312 311 310 310 310 309 309 309 309 310 309 306 304 305 305 307 309 309 309 310 311 313 312 312 312 312 311 310 310 310 308 308 300 295 296 299 307 305 305 305 306 307 305 305 302 304 305 306 305 305 305 304 304 303 305 305 305 307
306 306 307 308 307 307 308 310 309 310 311 312 311 311 312 312 311 312 312 312 312 312 312 312 312 311 310 310 310 309 309 309 308 308 308 308 309 310 310 309 308 303 309 309 310 310 311 310 311 314 313 312 312 311 311 311 309 308 307 301 306 307 302 297 303 303 304 302 305 305 301 304 305 306 305 305 305 305 304 304 304 303 304 304 304 306 308
303 304 305 306 307 307 306 307 308 309 311 311 312 313 313 313 312 312 313 312 311 311 311 310 309 309 310 310 310 310 310 309 308 306 306 306 307 309 311 311 310 310 310 311 312 312 313 312 312 313 312 311 310 310 310 310 309 307 308 307 307 306 300 299 300 304 303 305 302 305 305 301 303 305 305 304 304 302 304 304 303 304 305 304 305 307 307
305 304 305 308 309 306 305 307 309 310 311 312 312 312 311 312 312 311 311 311 311 311 311 311 311 310 310 311 310 309 309 305 302 304 305 305 306 308 310 311 311 311 312 312 312 311 311 310 310 310 310 309 310 310 310 309 308 308 308 307 306 305 304 304 305 303 303 299 304 302 303 304 304 303 303 302 304 304 302 304 302 302 304 304 305 306 303
310 310 310 309 310 310 310 309 310 310 310 309 310 311 311 311 311 312 312 312 311 311 311 311 310 309 307 307 306 306 305 304 303 304 305 306 306 309 310 310 310 310 308 309 308 309 309 308 308 309 309 310 309 308 308 308 308 307 307 307 304 304 304 299 303 303 303 303 304 304 304 303 303 299 301 304 304 304 303 302 303 303 303 303 305 306 305
310 309 310 311 311 311 311 311 310 310 310 310 310 310 310 310 310 310 310 310 310 309 308 308 307 307 306 305 304 304 303 304 304 305 306 306 308 310 308 306 306 307 305 305 308 309 309 307 292 287 311 309 308 307 306 306 307 306 307 306 304 303 301 303 303 303 304 304 304 303 304 301 300 301 301 302 304 303 302 302 303 303 303 303 304 305 306
311 311 310 310 311 312 312 312 312 312 311 310 310 309 308 308 308 309 308 308 308 309 308 306 306 305 305 305 305 306 306 306 305 306 307 308 309 308 306 305 305 305 305 303 306 309 308 307 293 285 301 306 307 308 307 288 305 305 306 305 305 304 303 304 304 304 303 303 304 303 302 301 302 302 300 302 302 302 303 302 302 302 302 302 303 304 303
310 310 310 310 309 309 309 310 310 310 308 307 308 309 309 309 308 309 307 308 308 308 308 307 306 306 306 307 306 305 307 307 308 308 308 308 307 306 305 304 304 304 304 305 308 308 307 303 292 299 308 306 307 308 302 289 288 306 305 304 304 305 299 304 304 302 301 303 301 303 302 302 302 302 302 302 302 302 301 301 302 302 301 302 303 303 304
308 309 310 309 308 308 308 309 308 309 308 306 306 307 308 306 307 306 305 306 306 307 307 306 306 306 306 305 305 306 307 308 308 308 308 306 306 305 304 305 306 306 306 308 309 307 306 304 307 307 306 307 306 307 302 296 291 305 305 305 305 304 298 302 303 302 300 303 303 301 302 302 302 301 302 301 302 301 299 299 301 299 302 301 302 303 303
307 307 307 308 308 308 308 308 308 308 308 308 306 305 306 305 305 304 303 304 305 305 306 305 305 304 305 305 305 305 306 307 307 307 306 306 305 305 304 306 307 308 306 298 307 307 301 292 301 307 307 307 307 305 303 299 297 303 305 305 305 303 303 303 302 301 301 302 301 296 301 301 300 301 300 300 301 300 300 300 300 300 301 301 302 303 302
306 306 306 306 305 305 305 305 306 306 306 307 307 307 307 305 304 303 303 303 305 306 306 306 305 305 305 305 305 306 306 306 306 305 305 305 304 304 303 302 306 308 307 307 307 305 299 300 305 305 306 306 306 298 303 298 304 306 304 304 303 303 302 301 301 301 301 301 301 300 300 301 299 299 300 299 299 300 301 300 300 300 301 301 301 302 302
306 306 305 305 304 304 304 305 305 305 305 307 307 308 307 306 304 304 305 306 306 307 306 306 300 308 306 305 305 304 305 305 305 305 306 304 303 303 300 303 306 306 296 294 299 302 306 306 305 300 305 304 303 290 287 303 305 305 304 303 303 301 301 301 301 301 300 301 301 301 299 299 299 298 298 299 298 299 299 299 300 300 300 300 301 302 302
307 306 305 305 304 305 305 305 305 306 306 307 308 307 306 306 307 306 305 306 305 306 305 305 304 303 303 304 304 304 304 304 304 304 304 305 305 305 304 305 307 305 289 302 305 306 305 306 306 305 293 296 299 287 287 303 305 304 303 302 302 302 301 301 301 301 301 300 299 299 299 298 298 299 298 299 299 300 300 300 301 300 300 301 302 302 301
307 306 305 304 303 304 305 305 305 305 305 305 305 306 306 306 306 305 305 305 305 304 304 304 303 304 303 304 304 303 302 303 303 304 303 303 304 305 307 305 306 300 292 302 303 303 304 304 305 297 289 287 287 285 299 305 304 303 304 302 302 302 301 301 300 299 299 298 298 299 299 297 299 300 300 300 299 300 299 300 300 301 300 301 302 302 301
307 307 306 306 306 305 304 304 305 305 305 306 306 306 306 305 306 306 305 305 303 303 302 303 303 303 303 303 304 303 304 304 304 303 302 300 299 302 304 298 305 303 301 294 302 303 304 303 296 284 288 286 286 285 304 304 303 302 303 302 302 301 300 299 298 298 298 298 298 298 299 299 300 300 300 299 296 298 298 298 298 299 299 300 300 300 301
308 307 307 300 305 306 306 306 306 306 305 305 305 305 305 305 305 305 305 305 304 304 304 304 304 304 304 304 303 304 304 304 304 305 304 303 301 303 305 299 302 297 292 290 303 303 304 285 286 287 286 286 286 300 304 302 302 303 303 302 301 298 299 298 298 298 298 299 299 299 300 299 300 300 300 299 299 298 297 295 296 298 298 298 298 298 298
306 306 306 307 307 307 307 307 306 306 305 303 302 303 303 304 305 305 305 305 305 304 304 304 304 304 305 304 303 302 302 302 303 304 304 304 303 302 298 294 293 293 296 304 302 304 301 301 293 287 286 286 285 303 303 303 303 303 301 301 299 299 298 299 299 299 299 299 298 297 295 298 299 299 298 296 297 297 297 296 296 296 295 295 297 296 295
304 303 304 304 304 304 305 305 304 303 303 302 302 303 303 304 304 304 306 305 305 304 304 304 304 304 304 304 304 305 304 303 301 302 304 304 305 305 305 306 302 293 294 293 293 290 283 287 286 287 287 285 301 304 303 303 303 301 301 299 298 299 299 299 299 298 298 299 298 298 298 298 298 298 297 296 297 297 297 296 296 295 295 295 295 296 296
304 304 304 304 304 304 303 303 302 300 303 302 301 302 303 303 303 303 304 304 303 303 303 303 303 304 304 302 303 304 304 304 303 301 304 304 304 304 304 296 288 288 297 303 303 304 290 288 289 288 287 288 303 303 302 301 300 300 298 298 299 299 299 299 298 299 298 298 298 297 297 297 297 297 296 295 295 296 295 296 297 296 295 295 295 295 296
304 304 303 303 303 303 303 303 302 303 303 303 303 304 304 303 301 301 302 302 302 299 302 302 302 303 304 304 304 304 305 304 304 305 305 304 305 304 303 303 302 295 294 301 301 302 289 285 289 291 296 302 303 301 300 299 299 298 298 298 298 299 299 297 292 294 298 296 297 296 296 296 296 294 295 295 295 295 295 295 295 292 289 292 294 295 295
302 301 302 298 302 303 304 304 304 304 304 304 304 303 303 301 301 300 302 301 302 299 300 300 301 302 303 303 303 304 305 305 304 300 304 304 304 300 299 301 302 299 299 299 301 301 303 304 303 300 300 301 301 300 299 298 298 299 296 299 299 297 298 298 297 297 298 296 296 297 297 296 296 296 295 295 295 295 294 294 293 294 294 295 295 295 295
302 303 303 303 303 303 303 303 303 303 303 302 302 302 302 301 300 300 301 295 301 301 300 300 300 302 302 303 302 304 304 304 303 303 301 304 303 303 300 295 302 299 302 303 302 303 302 301 296 294 294 299 299 300 295 294 298 299 299 297 295 299 296 296 296 297 296 296 296 296 296 296 296 295 295 295 295 294 294 295 294 294 294 294 293 294 294
Wind_Speed
2 2 1 1 1 1 1 2 3 5 5 5 6 6 2 3 3 3 3 1 4 4 3 2 3 2 3 4 3 3 2 2 3 4 4 5 5 8 10 10 9 9 8 7 7 7 6 6 7 7 8 7 6 6 6 6 5 5 4 4 5 5 5 5 6 6 6 7 6 7 7 8 8 8 8 8 9 9 8 9 8 9 10 10 9 9 8
3 3 2 2 3 3 3 5 5 4 5 7 7 6 4 6 5 3 3 4 8 7 6 5 3 2 1 1 2 1 2 3 4 4 3 4 5 6 7 9 9 9 8 7 6 6 6 7 7 7 6 7 7 7 6 5 5 5 4 5 6 6 6 6 6 7 7 6 7 7 7 8 8 9 9 9 8 9 10 10 10 10 10 10 10 10 10
5 4 3 3 2 3 6 4 4 4 4 5 5 5 4 4 7 6 5 7 9 5 3 2 3 2 1 2 2 3 3 3 3 3 3 3 3 4 5 6 7 8 7 6 6 6 6 5 4 5 6 7 7 7 7 6 6 5 5 5 5 6 8 7 7 7 7 7 7 8 8 8 8 10 10 9 9 10 10 10 10 10 10 11 11 10 11
5 6 5 4 2 5 7 8 8 7 5 2 5 4 6 4 5 4 5 6 7 4 5 3 3 3 4 4 3 3 3 3 3 3 3 3 3 3 3 4 5 5 6 5 4 4 3 3 3 4 4 4 4 4 4 4 2 1 1 3 5 6 7 7 7 8 7 8 8 9 9 10 10 10 10 10 11 11 10 10 10 10 11 11 12 11 10
1 5 4 4 5 6 9 8 7 9 8 5 3 3 4 8 6 3 4 6 4 4 3 4 6 6 4 4 4 4 3 1 2 3 3 4 4 3 3 2 2 2 2 1 1 1 1 1 1 1 2 2 2 2 1 2 1 2 3 3 4 5 5 6 7 7 8 9 10 10 10 10 10 10 11 12 12 12 12 11 10 11 12 12 12 12 12
1 5 4 4 5 4 0 6 4 1 4 8 8 7 9 10 9 6 4 4 4 4 5 5 5 7 5 2 3 2 2 1 3 2 2 3 4 4 3 3 2 3 2 3 3 3 2 2 3 3 3 2 2 3 3 2 2 2 2 2 3 4 5 6 6 7 7 8 9 9 9 10 10 11 11 12 12 12 11 11 11 12 13 14 13 13 13
1 5 4 5 4 3 5 4 3 2 1 2 6 6 6 6 12 12 10 9 7 6 6 6 3 2 2 1 2 2 2 2 2 0 2 4 4 4 4 4 4 5 5 5 4 4 4 4 2 1 3 3 2 2 2 3 3 3 3 3 3 4 5 6 6 6 7 7 8 8 9 9 9 10 11 11 12 11 11 12 12 12 12 13 12 13 13
0 3 3 3 2 6 3 4 3 3 1 2 3 7 10 11 11 12 13 11 8 7 7 6 4 3 1 2 4 4 3 2 2 3 3 3 3 4 4 5 5 5 5 5 5 5 4 4 5 5 5 3 3 5 4 5 4 5 5 6 6 7 7 7 8 8 8 8 8 9 9 9 9 10 10 10 11 11 11 10 10 10 10 11 12 13 12
4 3 3 5 5 8 7 5 4 7 5 7 6 4 4 3 8 10 10 11 9 7 7 6 4 2 3 6 6 6 4 4 3 3 3 3 4 4 4 4 6 6 6 7 7 6 6 6 6 6 4 4 5 6 6 6 7 7 7 8 9 9 9 9 10 10 10 10 9 10 10 10 11 10 10 10 10 9 9 10 10 10 11 11 10 8 10
6 4 5 4 4 5 1 2 2 3 2 2 3 4 8 6 6 8 9 9 8 8 8 7 5 4 6 8 8 8 6 6 6 4 5 6 6 7 8 8 8 8 8 7 7 7 8 8 6 6 5 6 6 7 7 7 7 8 8 9 9 9 10 11 11 11 11 11 12 11 11 12 12 11 11 10 9 7 8 8 9 9 9 9 9 9 10
4 5 5 5 5 4 4 1 3 2 2 0 1 5 8 5 3 6 8 9 8 8 8 8 7 7 8 8 5 10 9 8 7 8 8 8 7 8 8 9 10 9 8 8 8 8 8 8 6 5 6 7 6 7 7 7 7 8 8 9 9 9 10 10 10 10 10 11 11 12 12 12 11 12 11 10 9 8 7 7 8 8 8 7 7 8 6
6 6 6 7 3 3 2 3 4 4 2 3 3 6 4 4 1 3 6 8 7 6 7 8 9 8 8 6 4 10 11 9 7 7 9 9 10 10 10 9 9 9 8 9 9 9 9 8 6 5 6 7 8 8 8 8 9 9 9 8 8 8 8 9 9 10 9 10 11 11 12 12 11 11 10 9 9 8 8 7 7 7 7 6 8 9 7
6 7 7 7 6 5 4 3 5 5 4 3 5 7 2 3 1 3 5 7 6 6 8 8 8 10 1 7 10 10 11 10 8 8 8 9 10 11 10 9 7 8 8 9 9 9 7 7 6 7 7 8 8 8 8 8 9 8 7 7 7 8 8 8 9 9 9 9 9 9 10 10 10 9 9 9 9 8 8 7 6 7 8 8 8 9 8
9 8 8 7 7 3 5 4 4 7 5 4 8 4 4 6 5 2 3 5 5 6 9 9 6 5 8 9 10 11 10 10 9 9 10 10 10 9 8 8 8 8 8 9 10 10 8 8 7 7 8 8 8 7 7 9 7 6 7 7 7 8 8 8 8 8 8 8 7 7 8 8 8 8 8 7 7 8 7 7 8 7 7 8 9 9 8
5 4 7 5 7 2 3 10 5 4 4 2 4 4 4 5 5 5 4 4 3 4 6 7 2 6 8 10 10 10 10 11 11 10 11 10 10 9 9 9 8 8 9 9 9 8 7 8 7 7 8 8 7 7 8 8 6 6 6 7 7 7 7 7 7 7 6 7 6 6 7 7 7 8 7 7 6 6 6 6 6 7 6 7 7 7 7
7 6 5 4 2 4 4 7 3 6 4 3 3 5 5 5 5 4 4 3 2 2 4 3 3 6 9 9 10 11 10 10 10 10 10 10 10 9 9 8 8 9 9 9 8 8 7 7 7 7 7 6 6 7 7 5 5 6 6 7 7 7 6 7 8 7 8 7 7 7 8 7 7 7 7 7 7 6 6 6 6 6 6 6 6 6 6
6 4 4 4 3 3 1 5 5 5 6 6 5 5 6 7 4 4 4 4 3 1 3 3 5 6 6 9 9 10 11 11 10 10 10 9 9 9 8 8 7 8 9 9 8 8 7 7 7 5 5 6 6 7 5 5 6 6 7 7 6 7 7 7 8 8 8 8 8 7 8 8 8 8 8 7 7 7 7 8 9 10 9 7 6 6 6
2 4 1 0 2 1 1 2 2 5 5 4 3 4 6 4 5 4 5 4 3 2 4 5 6 6 9 10 10 11 11 11 10 10 10 10 9 9 8 8 7 8 8 8 8 8 7 6 5 5 5 5 6 5 4 5 5 6 6 7 7 8 7 7 8 8 8 9 8 7 8 8 8 8 8 8 8 8 7 8 8 9 9 9 9 8 7
1 3 5 3 3 3 2 2 2 1 0 3 3 4 4 4 5 5 4 4 2 2 5 5 6 9 10 11 11 11 11 11 10 10 10 9 9 9 8 6 7 7 6 7 7 7 7 6 5 5 4 4 4 4 4 5 5 6 7 6 6 7 7 7 7 7 7 8 8 7 7 7 7 7 7 8 8 8 8 8 8 9 9 9 9 9 9
7 4 3 3 3 4 3 1 1 3 4 4 4 3 4 4 4 4 4 2 1 2 4 6 9 10 11 13 12 10 10 10 10 9 9 10 9 8 8 7 7 8 7 7 6 6 6 5 4 4 4 4 4 4 4 4 4 5 5 6 6 7 7 7 7 7 7 7 8 7 7 7 7 7 8 8 7 7 7 7 8 7 7 7 8 8 8
6 2 3 2 4 5 3 3 4 5 5 6 6 5 4 3 2 2 1 2 2 1 3 5 8 10 10 10 11 11 9 10 9 10 9 10 10 9 8 7 7 7 7 6 6 7 7 5 4 4 3 3 3 4 4 4 5 5 5 5 6 7 7 8 8 8 7 8 8 8 8 8 7 6 6 6 6 5 4 5 5 6 7 6 7 8 7
5 5 0 2 4 4 6 4 5 6 6 6 7 5 4 3 3 2 1 2 2 3 4 6 8 10 7 8 9 9 9 10 11 11 10 10 10 9 7 7 7 8 6 6 5 3 2 1 3 3 2 3 3 4 4 4 5 5 6 5 6 6 7 7 9 8 8 8 9 8 8 8 7 7 7 4 1 3 6 4 3 4 5 4 6 7 8
4 3 5 4 5 6 4 4 5 6 5 7 7 7 6 5 2 2 4 1 2 4 4 2 6 10 11 11 11 12 11 11 10 10 10 9 8 7 6 6 6 6 6 4 4 2 3 1 1 2 3 4 4 4 4 4 5 6 6 5 6 6 7 7 7 8 8 8 8 8 9 9 8 8 7 5 10 8 6 7 6 5 9 10 10 9 6
8 6 5 6 5 6 6 7 7 6 5 5 7 7 7 6 6 3 4 3 2 3 4 3 4 10 11 12 13 13 12 11 11 9 8 7 7 5 3 4 5 4 4 0 2 1 0 0 2 2 2 3 3 3 3 4 4 5 6 6 6 6 7 8 6 7 8 8 9 9 9 9 9 9 8 9 3 8 11 7 8 9 9 9 9 9 8
7 5 6 5 6 7 7 6 6 7 5 4 6 8 8 8 7 4 5 4 5 7 7 7 7 10 13 13 13 14 13 11 9 8 7 5 3 3 5 3 2 1 1 2 2 1 1 1 1 1 1 3 3 4 3 3 4 4 5 5 5 5 7 8 7 8 8 9 9 9 10 10 10 8 9 8 9 9 4 11 11 8 8 12 11 9 7
4 6 7 7 7 8 8 9 10 8 1 2 5 7 5 4 5 6 5 4 4 6 8 11 12 11 12 14 13 12 10 9 8 8 8 5 4 4 5 5 5 4 2 1 1 0 0 1 1 1 1 3 4 4 3 3 3 3 4 4 6 5 7 7 8 8 9 9 9 9 8 9 9 9 8 8 9 9 9 10 8 5 10 12 12 10 10
8 8 9 11 12 11 10 10 9 4 4 4 5 7 7 3 3 4 2 2 4 6 9 11 13 13 12 12 11 8 9 9 7 5 7 8 7 5 4 3 2 1 1 1 1 1 2 3 2 1 2 3 3 3 2 3 2 3 4 4 8 2 10 4 7 9 9 9 9 8 9 9 9 9 8 8 8 9 9 10 9 10 11 7 7 8 3
9 10 9 10 10 10 10 9 6 7 8 7 6 7 5 3 4 5 6 7 8 10 11 12 12 13 11 8 8 7 7 8 8 8 8 7 6 5 4 2 0 1 2 1 1 0 2 3 2 1 2 2 3 3 3 3 3 4 5 7 7 9 7 6 8 9 9 10 9 9 9 10 9 8 8 9 8 9 9 9 9 10 10 9 10 10 7
9 9 9 9 10 10 10 9 9 10 10 5 4 5 5 6 6 6 8 9 12 12 11 11 9 9 8 8 7 8 9 9 8 7 5 4 3 3 2 2 3 2 1 1 0 2 2 2 2 1 3 1 2 3 4 4 4 4 6 7 7 8 7 7 9 9 9 10 9 10 9 9 9 8 8 8 9 9 9 10 10 10 10 10 10 9 11
7 6 6 7 7 7 8 9 9 9 7 6 5 6 7 7 7 8 10 12 11 10 10 9 8 8 8 7 6 7 8 9 8 6 4 4 3 2 1 2 3 3 2 1 3 2 3 3 2 1 1 1 2 4 5 5 5 6 5 5 6 6 7 8 8 9 9 10 10 9 9 9 9 9 9 9 10 10 10 10 11 11 11 11 9 10 11
10 8 8 7 7 7 8 9 8 7 7 6 7 7 7 8 8 10 10 9 8 9 9 8 8 8 7 7 7 6 7 6 6 6 5 5 3 2 1 1 1 2 2 2 2 3 4 3 3 1 0 2 4 5 5 5 6 6 7 8 8 4 5 1 6 7 9 9 9 9 9 9 9 8 10 10 10 10 10 11 11 10 11 11 10 10 10
11 11 10 7 7 8 8 7 7 7 6 5 6 8 8 9 10 11 10 9 9 9 9 8 8 8 7 7 6 5 5 6 6 6 6 5 3 2 2 1 2 2 2 0 1 2 3 3 3 3 2 3 4 5 4 5 6 6 7 8 8 9 6 6 8 9 8 7 9 8 7 9 10 10 10 10 11 11 12 11 11 12 11 11 11 10 10
12 11 10 10 10 8 9 7 7 6 5 7 7 7 8 8 8 8 8 8 8 8 8 7 8 8 7 6 7 7 7 7 7 6 5 5 4 3 2 2 2 1 1 2 2 3 4 5 5 4 5 5 6 6 6 5 6 6 7 7 8 8 8 8 7 9 8 9 8 9 10 8 9 10 10 11 12 12 12 12 12 12 11 11 11 11 10
12 12 11 8 6 7 8 8 6 5 5 5 6 6 5 6 7 8 8 7 7 6 6 7 7 7 6 6 5 5 6 7 6 5 5 4 4 3 3 2 2 3 3 3 3 4 5 5 5 5 5 6 7 7 7 7 7 7 7 8 7 8 8 9 9 9 9 7 9 10 10 10 10 10 11 11 11 11 11 11 11 11 12 11 11 11 8
8 8 8 8 7 7 8 7 5 6 7 7 7 6 5 5 5 6 5 6 6 6 6 5 5 5 5 5 5 5 5 5 5 5 5 4 3 2 2 3 4 4 5 6 6 6 6 6 5 5 5 6 7 7 7 8 7 6 7 8 8 8 8 6 8 8 9 9 9 9 10 10 10 10 9 10 11 10 10 11 11 11 12 12 11 11 11
4 4 3 1 1 1 3 5 6 7 7 6 4 4 4 5 5 7 7 6 6 5 4 4 4 4 4 5 5 5 6 5 5 4 4 3 3 2 2 2 3 5 7 7 6 5 5 6 5 5 3 5 5 7 7 7 7 8 6 6 7 7 6 8 8 8 8 9 8 9 9 10 11 9 10 10 10 11 11 11 11 11 11 12 12 11 11
4 4 4 4 6 6 7 7 6 5 6 5 5 7 8 7 7 6 3 3 4 3 3 4 4 5 5 5 5 5 5 5 4 4 3 3 3 3 3 2 2 2 3 5 5 4 5 5 4 7 5 3 4 5 6 5 7 7 6 6 7 7 7 7 8 8 9 8 9 9 10 10 9 10 10 10 10 11 11 11 11 11 11 12 12 11 11
3 4 5 5 5 5 6 6 6 7 5 5 6 6 4 3 4 2 3 3 3 2 2 2 3 4 4 4 4 5 5 4 3 3 4 4 3 3 3 2 2 1 2 5 3 3 5 2 6 6 3 4 4 4 4 3 8 8 6 6 7 7 5 7 8 8 8 8 9 9 10 9 9 10 10 10 10 11 11 11 11 11 11 11 11 11 11
4 3 3 4 3 3 2 3 4 4 3 4 4 1 1 2 2 1 0 2 3 3 3 5 5 5 5 7 6 5 4 4 3 4 4 5 3 2 3 4 5 5 5 3 2 3 3 3 4 3 3 4 5 4 5 5 10 7 6 6 7 7 5 7 8 8 8 9 8 9 10 10 10 10 10 10 11 11 11 11 11 11 11 11 11 11 11
2 2 2 1 1 1 3 4 4 3 4 4 4 4 3 3 3 4 5 5 5 5 5 5 5 5 6 6 5 4 4 4 4 5 6 6 5 6 6 6 6 5 4 1 1 3 2 6 7 3 3 4 4 6 5 6 10 6 6 6 7 7 7 7 8 8 8 9 9 10 10 10 10 10 11 11 11 11 11 12 11 11 12 11 11 10 10
2 2 2 1 1 2 2 3 3 3 4 5 5 5 6 7 7 7 7 6 6 5 5 5 5 5 5 5 3 4 5 5 5 5 5 5 5 4 3 4 4 4 2 2 3 2 1 3 4 4 4 5 4 5 5 7 8 5 6 6 6 7 7 7 8 8 8 9 10 10 10 11 11 11 11 11 12 12 12 12 12 12 12 12 12 11 10
2 1 1 1 2 1 1 3 4 4 5 6 7 6 7 6 5 5 4 3 2 3 4 4 2 3 3 4 6 6 6 6 5 4 2 1 3 3 2 4 3 3 4 1 6 7 6 4 2 4 4 5 4 6 6 7 6 5 6 6 6 7 7 7 8 8 9 9 9 9 10 10 11 12 12 12 12 13 13 13 13 13 13 12 12 12 11
1 1 1 0 0 0 1 2 3 4 5 6 7 7 6 5 4 4 4 4 3 3 3 3 5 4 6 6 6 6 5 5 4 5 4 3 3 4 4 2 3 5 0 2 3 4 2 2 3 5 5 4 4 7 9 7 5 5 5 6 6 7 7 7 8 8 9 9 9 10 10 11 11 12 12 12 12 12 12 13 13 13 13 13 13 12 11
2 1 2 2 1 1 3 4 4 5 5 6 5 4 4 4 4 5 5 5 4 4 5 6 6 6 6 5 5 4 4 4 4 4 4 4 4 4 2 2 3 5 3 4 3 3 3 3 5 5 2 3 5 7 6 6 5 5 5 6 7 7 7 7 8 8 8 9 9 9 10 11 11 11 11 11 11 12 12 12 12 12 13 13 13 12 11
5 4 3 2 2 2 3 4 4 5 4 4 6 6 6 6 6 6 6 6 6 5 6 5 6 5 5 4 4 3 2 2 1 2 3 3 4 4 5 4 2 2 3 4 4 3 3 4 5 4 4 5 6 7 6 4 5 5 5 6 6 7 7 7 8 8 8 9 9 9 9 9 10 10 10 11 11 12 12 12 13 13 12 13 13 12 11
4 5 5 4 4 4 2 3 3 3 3 5 6 5 6 6 7 6 6 7 7 7 7 7 6 6 6 5 3 3 3 2 2 0 2 3 4 4 5 4 3 4 3 6 3 3 5 6 4 3 5 6 7 8 4 4 4 5 5 6 6 6 7 7 8 8 8 8 8 8 8 9 9 9 9 9 10 11 10 11 12 11 11 11 11 11 10
4 5 5 5 5 4 4 4 4 5 5 5 6 6 5 5 5 5 5 6 7 8 8 7 7 7 6 5 4 4 4 4 4 3 1 2 3 4 6 4 5 1 3 3 3 3 4 3 3 4 5 6 8 5 4 3 4 5 5 6 6 6 7 7 7 8 8 7 8 8 8 7 7 7 8 9 10 10 10 11 10 9 9 9 9 9 9
3 4 3 3 4 4 4 5 5 6 6 6 6 6 4 3 4 4 4 5 6 7 7 7 6 6 6 5 4 3 3 3 3 3 2 1 1 2 4 2 3 3 1 4 6 6 5 3 2 5 5 6 7 2 4 4 4 5 6 6 6 7 6 6 7 7 7 7 7 7 7 7 7 8 9 10 11 10 11 11 11 11 10 9 10 10 11
4 4 3 3 3 2 3 4 6 6 6 5 7 6 4 4 5 5 4 5 7 8 7 7 7 6 6 5 4 4 3 2 3 1 3 2 2 1 3 7 6 6 6 3 1 4 6 2 1 3 6 8 3 4 3 4 5 5 5 5 6 6 6 6 6 6 6 6 6 6 6 7 8 8 10 10 10 10 11 12 12 12 12 12 11 11 11
5 5 6 7 7 6 6 5 5 5 5 5 6 5 4 5 6 6 6 7 7 7 7 6 6 6 6 6 6 4 3 3 2 1 2 2 2 1 1 0 3 3 3 3 2 2 9 7 7 4 4 3 3 3 4 5 5 5 5 5 5 6 5 5 6 6 6 6 6 6 6 7 7 9 10 10 10 11 11 11 11 11 13 11 10 10 11
5 6 5 2 4 4 4 5 6 6 5 5 6 5 4 6 6 6 6 6 7 7 8 6 6 6 6 6 5 4 4 4 3 3 3 3 2 2 1 0 2 2 1 2 1 2 1 2 2 0 1 2 2 3 4 5 6 5 5 5 6 6 6 6 6 6 6 6 7 7 7 7 8 9 10 11 11 12 12 12 12 12 12 11 11 11 11
5 4 4 4 5 4 4 5 5 5 5 6 6 6 6 6 7 7 7 7 9 9 7 7 7 6 6 6 6 5 5 5 4 5 3 3 3 3 6 4 3 5 5 3 1 1 0 3 4 2 2 3 3 3 2 2 4 5 5 6 5 6 6 6 5 5 6 7 7 7 8 8 10 11 11 11 12 12 12 12 12 12 12 12 11 11 11
Wind_Direction
51 45 75 20 231 322 336 238 201 205 200 210 229 246 269 264 290 345 60 312 272 293 314 340 290 340 312 308 320 328 325 288 185 166 165 172 184 198 206 206 207 215 218 218 223 227 231 241 252 259 266 268 262 260 266 270 260 241 228 232 245 249 248 254 262 269 271 272 271 269 263 264 263 261 263 266 268 268 263 259 256 260 262 260 257 254 251
151 138 142 164 229 187 217 230 233 246 217 227 241 247 240 236 260 326 309 288 280 286 296 304 9 55 336 323 322 252 202 167 153 163 167 187 187 199 212 213 215 215 225 228 227 228 237 245 254 262 270 278 281 274 270 272 264 251 228 225 240 251 255 258 258 266 271 266 262 265 263 259 261 263 264 264 261 262 263 262 261 257 257 257 257 256 254
167 146 160 185 216 238 249 209 223 219 235 244 233 250 227 244 260 247 253 267 277 264 245 271 88 99 159 213 196 130 105 132 160 191 190 199 216 187 197 213 220 225 228 231 230 236 246 261 271 277 277 280 278 272 269 263 261 262 251 238 241 248 259 264 270 271 270 268 267 264 261 260 259 261 264 263 260 260 263 263 262 261 258 258 255 253 256
169 168 207 194 215 244 261 263 236 205 172 188 211 216 209 188 227 221 215 249 253 147 137 159 177 179 194 187 164 169 186 192 209 225 217 208 182 174 175 183 194 212 220 227 246 259 282 276 274 276 276 274 269 271 267 269 273 304 290 271 271 268 269 274 274 278 278 275 273 274 268 264 263 263 262 260 259 258 258 255 252 253 255 255 258 257 255
145 125 206 224 241 247 246 234 239 234 211 219 191 221 213 216 198 188 221 261 39 82 149 180 181 194 190 197 195 185 172 166 237 217 207 178 152 137 124 117 135 141 135 100 62 15 323 42 0 341 289 284 315 319 314 277 252 238 245 255 268 277 281 282 285 284 280 277 278 276 269 267 267 262 261 260 259 256 253 250 249 248 249 251 250 253 254
136 141 165 218 241 248 6 71 56 8 216 206 212 226 221 209 197 231 273 324 75 149 175 213 184 197 195 208 104 17 341 174 174 168 159 145 128 124 122 125 128 107 93 90 80 78 70 56 49 22 17 17 5 357 344 6 342 331 321 311 301 311 308 304 301 294 289 287 284 282 280 275 269 264 261 258 255 251 249 247 244 246 245 244 244 245 248
239 145 200 232 248 254 78 124 96 41 317 260 246 266 265 218 211 237 256 251 237 209 208 204 217 114 103 189 238 202 187 244 274 104 139 143 135 128 130 115 96 87 91 93 95 82 68 56 51 51 62 36 11 47 30 36 35 12 15 359 1 357 341 337 326 319 311 308 303 301 296 291 283 277 275 274 268 261 254 247 243 242 243 244 243 243 243
260 249 227 252 248 67 146 127 114 87 192 211 261 272 254 237 221 220 235 245 240 214 208 206 203 221 222 249 230 217 207 202 218 176 139 103 112 114 95 104 99 102 90 82 81 78 70 73 65 63 65 45 51 65 55 48 48 42 24 16 18 12 352 345 341 337 325 319 310 304 301 296 287 280 277 273 270 267 266 264 255 250 249 248 248 246 246
249 248 245 252 351 280 230 203 200 196 219 185 204 253 266 215 211 215 232 239 239 218 204 191 182 189 219 231 205 184 181 156 167 147 106 116 105 108 103 99 105 101 101 100 97 94 85 76 76 66 55 60 65 58 52 41 30 29 22 16 7 0 352 346 342 335 329 320 313 305 302 297 288 283 278 274 272 272 271 268 266 264 266 263 258 252 259
236 257 260 247 240 258 220 185 107 174 3 309 249 263 266 212 205 205 223 232 225 220 200 190 171 161 216 222 199 154 145 143 140 130 119 119 112 107 109 107 107 107 107 107 101 95 88 76 64 59 54 61 61 55 45 34 31 25 17 11 1 356 350 345 340 337 332 327 321 315 309 302 301 298 293 288 286 287 282 281 279 280 278 271 266 266 263
196 229 251 258 266 275 326 38 98 107 122 149 242 253 271 117 162 198 223 227 220 216 187 169 161 194 219 226 181 135 138 135 138 135 124 116 112 110 111 116 114 111 106 102 101 92 83 74 60 59 66 59 58 57 49 39 32 29 18 10 1 357 349 345 342 341 339 334 328 322 316 313 310 305 301 301 301 300 289 280 278 278 277 278 285 284 292
213 232 239 257 245 271 107 121 102 121 126 117 231 264 274 116 149 189 216 227 223 202 183 167 191 213 231 249 119 133 131 126 122 127 124 119 115 111 107 101 101 105 109 104 86 73 65 58 51 55 63 66 61 53 47 41 36 28 18 9 1 358 355 355 355 355 353 348 341 331 325 322 319 315 315 310 310 307 302 294 293 296 294 282 270 274 265
233 226 258 263 259 247 204 120 123 116 144 212 239 247 353 104 185 192 214 229 221 194 180 188 214 220 35 75 115 122 121 120 110 103 108 113 114 113 108 100 104 96 83 77 74 69 62 50 51 53 57 61 60 55 49 46 40 28 18 14 13 15 12 15 16 15 13 7 357 353 349 341 335 328 327 328 327 322 312 308 317 313 306 300 292 287 288
237 233 248 254 273 17 86 87 123 140 169 209 239 31 344 334 8 353 246 249 222 205 200 203 236 73 97 110 115 118 119 115 115 116 115 110 99 91 90 97 101 97 90 84 79 70 58 53 51 53 56 63 60 56 54 51 42 31 28 25 25 23 19 23 20 18 17 11 5 2 0 357 355 357 355 353 349 338 332 328 326 321 316 312 308 302 294
251 231 246 248 250 110 148 127 132 150 232 289 46 336 354 35 1 345 333 300 301 260 236 223 181 101 108 118 118 116 119 122 124 125 123 118 115 112 108 98 92 99 94 85 78 74 65 58 54 57 59 60 60 59 53 44 34 28 24 14 13 14 10 9 7 2 2 359 358 353 355 351 353 356 359 2 359 358 347 340 343 343 339 341 329 321 328
248 239 227 240 1 77 177 202 252 191 239 32 327 341 305 353 339 340 325 318 296 263 281 247 138 113 119 117 122 120 118 116 113 111 109 107 104 101 96 95 97 97 96 93 87 76 69 62 56 51 52 59 57 55 48 30 22 14 9 7 1 359 0 3 360 353 349 349 348 351 346 338 339 344 352 347 343 350 347 343 346 345 345 344 339 340 344
228 266 286 81 75 32 116 249 290 321 326 321 320 293 296 298 324 357 305 336 357 277 231 193 156 139 136 132 132 126 123 120 119 115 110 107 105 102 99 94 99 99 98 99 95 85 73 67 60 56 50 54 57 50 39 16 13 10 6 5 9 6 6 5 3 355 353 354 343 351 346 339 335 337 340 337 333 338 332 327 326 321 319 327 338 346 351
262 270 236 234 260 155 115 172 282 306 330 337 313 291 287 293 315 326 315 321 316 206 197 182 165 145 133 129 127 123 121 117 111 111 110 105 103 102 100 99 93 95 99 99 96 91 84 75 69 55 45 43 47 42 29 23 12 18 21 23 26 20 13 11 9 0 360 359 351 356 352 346 346 343 339 336 339 339 339 345 341 334 331 331 333 329 324
219 235 131 205 177 149 142 74 106 124 265 345 329 313 302 316 327 320 323 310 289 209 181 188 144 132 140 132 130 128 126 127 126 124 118 111 110 110 107 106 113 104 99 92 86 81 72 57 48 47 46 46 43 36 32 23 33 39 38 31 30 24 15 9 8 3 359 5 345 354 356 350 350 352 352 347 347 349 351 354 350 348 344 343 338 337 338
229 277 92 98 110 91 71 38 75 65 24 10 359 342 324 317 321 310 333 309 263 208 177 154 140 142 145 140 140 139 136 131 127 118 118 122 117 109 104 100 95 90 82 78 72 68 68 63 54 45 39 42 45 35 44 44 41 48 46 35 25 23 16 14 6 360 359 353 340 353 357 353 356 0 2 355 356 359 357 352 347 346 341 341 342 343 340
246 248 215 231 147 166 136 97 61 35 16 359 354 359 354 337 330 352 358 331 61 124 109 141 140 141 150 147 146 138 132 131 135 137 132 121 118 117 105 89 78 77 76 73 66 52 40 33 54 48 47 48 56 62 57 53 39 37 34 34 30 24 17 19 9 1 1 2 357 349 353 350 354 2 8 359 356 3 35 3 352 338 343 334 335 337 330
237 256 104 14 236 210 181 106 42 17 12 358 348 340 337 355 349 5 17 116 78 87 127 151 144 132 130 131 128 132 140 136 128 125 125 123 119 114 113 115 104 89 74 66 65 91 118 48 36 58 63 70 60 56 54 40 39 33 26 20 19 20 14 19 11 358 4 3 360 354 354 349 343 351 146 191 323 358 17 78 160 248 256 307 329 330 326
268 18 349 339 329 304 315 18 11 356 0 348 341 342 338 338 340 345 342 329 167 122 80 56 164 161 155 152 146 137 129 125 126 126 129 129 125 119 123 125 114 117 109 132 143 99 62 19 54 66 60 54 56 52 53 45 37 28 23 13 13 12 10 11 7 350 359 4 359 358 355 349 343 341 337 184 208 228 215 260 284 242 219 242 268 272 281
299 320 344 354 323 300 331 338 333 327 336 328 327 326 342 335 324 284 227 248 257 144 144 142 150 145 142 142 138 127 121 117 113 107 99 101 105 100 95 107 111 113 131 169 82 72 109 341 45 55 68 58 41 44 42 40 41 29 26 14 14 9 10 359 354 2 351 2 354 356 355 352 345 341 332 337 333 212 222 210 210 213 197 211 227 244 257
291 327 307 324 316 309 303 299 304 298 299 312 316 326 326 326 315 299 266 226 199 174 162 150 146 152 145 138 129 125 123 119 109 98 94 83 77 104 103 100 141 235 144 244 233 274 33 12 18 0 72 65 45 32 26 29 30 25 13 13 7 12 4 354 345 355 352 355 352 350 352 347 345 340 334 338 330 339 279 210 204 212 188 189 197 216 214
279 284 289 289 286 280 277 279 273 273 199 319 305 295 284 268 294 292 271 233 190 182 164 146 140 140 137 133 127 119 107 100 109 127 128 128 155 145 188 185 195 207 207 214 223 222 5 301 301 312 60 61 42 27 14 27 10 359 351 344 328 357 354 348 340 351 349 350 345 344 346 341 339 333 333 330 330 324 321 335 329 254 219 193 184 183 188
267 272 285 286 276 271 266 269 284 331 329 299 280 284 286 282 201 242 212 182 164 159 148 140 132 128 123 119 114 109 116 125 136 154 141 153 176 174 184 185 173 164 235 250 215 109 259 272 272 310 87 60 50 28 5 25 336 328 321 326 325 95 175 257 334 343 344 341 339 337 339 333 329 328 328 327 322 321 329 331 329 330 339 324 194 189 324
278 274 265 267 273 276 280 289 308 304 296 294 293 286 266 239 223 193 170 149 137 131 127 127 126 125 126 130 131 127 125 140 149 147 153 166 169 168 171 146 160 247 244 256 318 353 286 309 331 265 85 66 52 21 14 2 351 322 322 331 325 335 341 327 342 344 337 335 333 332 337 329 321 314 321 324 322 322 324 323 323 329 327 324 330 339 299
274 270 264 259 264 272 280 287 284 280 278 273 275 263 235 219 197 175 154 145 138 136 134 136 138 136 133 133 143 143 145 142 141 145 139 131 135 130 127 214 238 243 257 267 87 25 314 310 310 319 94 54 15 12 2 2 344 348 342 349 334 337 334 351 348 336 331 326 329 335 315 299 305 314 320 320 321 323 322 324 327 326 320 323 329 319 326
280 286 280 268 266 273 275 274 275 275 269 259 250 239 228 209 185 160 147 145 149 143 135 135 133 124 127 124 126 131 130 125 117 121 120 112 100 107 176 225 221 210 203 37 25 346 321 324 318 266 115 324 358 5 2 352 340 343 331 314 319 329 339 359 341 331 330 332 334 320 315 331 326 327 327 326 324 320 320 322 323 317 316 322 321 320 324
299 289 275 279 279 275 272 276 278 275 269 257 244 234 211 202 177 159 150 145 141 131 130 124 114 112 105 103 102 101 104 114 127 134 129 126 129 143 183 206 307 42 28 2 333 334 330 339 336 342 137 346 3 359 353 343 338 332 328 339 333 19 118 277 288 329 332 332 331 327 327 324 329 328 329 324 322 319 319 319 317 316 319 318 318 322 323
290 283 272 270 273 275 272 270 271 270 258 242 222 210 196 181 169 156 144 138 126 124 125 121 115 109 108 108 109 109 126 140 144 136 133 136 145 150 140 110 118 183 224 327 356 358 350 355 37 50 29 26 8 14 11 356 342 336 344 341 336 332 7 348 337 342 322 330 325 328 335 329 326 326 319 321 320 319 318 318 317 320 320 317 317 321 328
271 271 263 257 253 256 270 273 274 258 233 213 204 191 187 178 153 136 128 126 130 130 125 117 114 120 130 139 152 162 160 145 132 133 135 136 138 152 160 164 163 163 88 65 41 36 44 45 52 41 39 41 41 36 22 6 348 344 352 343 340 341 334 336 348 319 328 327 325 330 323 320 319 317 323 321 315 315 315 317 316 316 312 312 315 321 328
260 260 271 289 296 290 291 283 252 232 204 206 200 175 150 142 134 134 133 136 127 129 131 124 128 143 155 154 159 149 141 139 142 139 143 148 145 148 138 139 105 94 77 71 61 56 59 53 45 45 48 50 50 40 21 12 357 347 354 341 340 334 331 334 329 328 329 326 326 323 322 327 326 328 322 318 316 314 313 311 315 315 313 313 315 314 330
265 268 272 275 271 263 261 252 224 211 201 189 174 165 163 154 132 92 76 111 108 102 97 112 127 132 126 126 119 130 140 142 141 152 154 157 132 105 109 126 127 116 98 82 72 71 61 57 45 41 57 57 55 42 26 7 349 341 342 336 334 333 332 333 328 333 332 331 330 334 330 333 332 321 317 318 319 318 317 323 321 319 316 315 317 320 319
252 242 239 255 273 234 212 207 194 186 185 174 166 156 126 103 99 104 90 92 110 117 119 131 134 139 138 134 136 143 147 154 162 160 155 140 124 125 128 110 130 131 108 89 73 71 79 75 44 338 330 56 49 53 33 359 342 338 336 330 337 332 334 330 333 330 336 332 339 334 339 325 309 316 329 325 323 324 327 325 324 323 320 320 320 319 317
60 83 97 85 73 73 76 78 84 92 78 92 109 106 88 85 86 100 124 131 111 131 151 146 153 158 154 161 165 173 174 174 173 167 140 128 134 142 124 111 109 124 130 102 84 81 78 68 3 303 285 29 43 62 52 352 338 336 323 338 340 336 337 336 339 337 334 337 341 334 335 324 333 333 333 329 328 331 329 325 325 323 322 320 317 315 317
96 79 71 65 63 59 56 55 58 84 84 77 62 67 80 108 120 130 107 109 127 156 168 193 194 185 168 169 192 197 188 178 175 153 143 137 141 148 143 161 153 187 91 79 84 87 64 20 268 265 6 21 13 49 75 2 314 290 331 343 343 338 341 338 338 338 333 339 334 338 334 333 334 335 334 330 332 332 327 325 327 325 319 317 317 319 319
94 86 93 100 101 93 114 129 127 95 79 99 111 128 20 36 17 21 116 214 215 214 201 208 198 201 190 198 198 186 174 165 155 149 145 141 147 130 90 70 64 56 76 65 55 59 65 18 336 337 9 32 9 29 52 13 325 317 342 341 346 341 342 343 341 336 338 333 336 340 327 333 332 332 328 328 327 323 320 323 320 317 317 319 319 319 319
103 80 59 60 79 126 160 146 148 159 172 177 168 189 197 195 199 203 205 203 204 210 216 209 205 211 205 214 208 181 152 143 149 145 143 142 142 135 126 112 102 94 84 320 310 68 40 277 272 315 10 19 31 6 12 355 305 322 342 347 348 345 345 342 340 335 335 334 336 326 328 333 332 326 322 322 319 319 320 318 314 316 314 314 316 316 315
125 121 110 124 136 205 202 199 192 202 206 207 209 212 199 203 200 195 192 199 188 203 220 234 234 234 231 215 190 137 132 139 147 141 145 162 180 210 229 117 116 111 105 23 8 30 190 279 9 345 20 352 50 26 350 333 307 342 342 348 347 347 339 342 338 331 337 335 334 330 334 330 326 322 326 322 319 316 316 316 316 314 312 313 315 314 313
107 102 99 84 92 85 201 199 186 192 203 206 208 209 201 207 203 201 190 211 205 208 228 222 340 312 180 144 137 139 143 146 142 145 170 275 319 293 290 112 127 91 54 282 234 234 221 214 130 69 21 339 8 40 333 295 313 343 338 348 345 340 335 338 334 336 333 332 333 331 330 328 329 328 325 321 320 321 319 319 317 316 316 316 314 313 318
18 344 334 266 154 297 211 178 192 186 185 187 190 192 188 190 202 205 205 214 233 224 208 178 149 158 150 155 152 149 144 147 148 138 126 98 63 29 11 87 113 91 340 279 315 300 321 349 13 65 25 339 354 340 295 291 326 331 341 341 340 334 336 337 333 333 335 336 334 333 334 336 330 327 326 326 327 328 329 327 322 322 321 320 318 320 323
197 216 242 262 263 267 258 222 182 173 172 162 159 164 183 200 213 227 235 241 228 204 190 162 163 168 171 165 176 169 164 172 183 183 187 142 122 93 60 28 68 88 24 327 320 322 337 22 39 32 21 297 297 295 292 306 324 333 340 336 337 336 337 332 337 336 337 336 335 335 338 334 330 332 331 330 331 329 326 325 325 326 324 318 318 321 326
215 216 213 239 280 286 242 232 216 215 206 168 178 198 206 222 228 238 242 236 224 195 190 179 173 174 174 183 200 200 199 191 218 211 240 236 243 137 128 157 150 137 90 306 295 316 36 42 46 5 331 324 306 288 278 313 337 332 336 332 340 337 334 334 341 336 337 334 336 336 336 333 333 331 334 338 338 333 333 335 334 328 324 327 329 333 337
242 238 233 237 242 240 256 296 308 289 241 225 226 218 229 241 243 237 233 230 214 198 196 191 187 183 188 188 175 158 166 178 140 70 353 3 6 41 67 24 53 64 320 281 312 330 84 96 60 7 336 312 297 272 288 339 329 336 338 338 338 337 337 340 339 335 337 334 339 337 333 334 335 336 343 339 337 334 336 333 327 331 331 328 326 327 326
245 245 235 233 233 244 261 263 267 263 252 242 243 243 218 222 231 235 228 226 216 202 201 197 195 191 192 196 190 190 197 182 162 160 154 118 110 108 106 107 114 74 267 286 7 11 38 80 43 351 312 304 277 287 337 333 343 338 337 341 338 338 338 339 336 338 336 338 337 324 325 327 327 329 333 331 334 336 332 329 327 324 322 318 313 315 316
258 255 240 235 245 240 249 252 245 244 238 242 246 250 225 211 227 235 223 209 202 203 204 209 208 205 202 206 209 234 262 253 226 173 175 226 190 171 190 185 102 81 205 157 121 102 100 83 0 313 298 279 266 309 345 339 341 342 337 341 340 340 334 339 339 339 335 335 331 331 332 330 329 330 335 333 331 327 329 325 322 324 323 319 316 313 311
253 257 235 233 231 215 241 245 245 243 245 243 251 253 236 233 235 231 220 209 207 207 211 211 211 202 194 188 201 210 196 234 311 322 164 196 224 236 121 117 151 202 238 279 187 133 125 141 247 284 282 268 295 355 341 350 341 338 339 342 336 332 329 339 339 334 328 328 329 325 325 325 326 331 332 327 324 324 324 322 322 322 324 320 311 307 308
232 235 239 239 240 238 237 240 246 251 252 244 241 236 228 232 241 234 230 225 223 221 217 202 207 208 211 196 201 209 198 187 191 168 164 169 189 194 204 217 94 76 336 318 309 138 133 169 190 218 283 305 4 339 2 349 340 344 342 332 333 327 335 327 297 290 306 317 321 317 319 321 325 328 326 324 324 323 320 320 317 313 305 302 314 317 316
249 252 253 255 263 276 275 263 264 267 260 251 255 257 248 245 250 248 240 234 234 227 232 222 217 218 216 218 220 217 202 200 189 186 211 174 175 102 39 159 149 183 193 261 259 302 161 146 61 31 273 308 340 355 6 359 340 336 335 334 336 321 323 319 322 327 330 327 314 313 321 319 326 331 329 328 325 322 322 321 320 320 321 321 318 319 318
254 251 244 245 257 258 259 250 246 250 252 255 257 250 252 259 262 254 242 218 228 230 230 240 234 215 223 223 217 212 203 202 195 185 203 204 198 189 151 219 223 164 200 215 169 178 238 123 145 144 298 317 1 358 30 258 315 336 336 329 321 323 319 314 318 333 336 327 319 319 324 330 335 328 326 327 327 328 327 325 323 322 321 322 320 318 316